Regional Weather Roundup
Issued by NWS

Home | Current Version | Previous Version | Graphics & Text | Print | Product List | Glossary On
Versions: 1 2 3 4 5 6 7 8 9 10 11 12 13 14 15 16 17 18 19 20 21 22 23 24 25 26 27 28 29 30 31 32 33 34 35 36 37 38 39 40 41 42 43 44 45 46 47 48 49 50
000
ASUS43 KLSX 161259
RWRMO

WEATHER SUMMARY FOR MISSOURI
NATIONAL WEATHER SERVICE SPRINGFIELD MO
800 AM CDT WED APR 16 2014

NOTE: "FAIR" INDICATES FEW OR NO CLOUDS BELOW 12,000 FEET WITH NO
       SIGNIFICANT WEATHER AND/OR OBSTRUCTIONS TO VISIBILITY.
       CURRENT SKY AND/OR WEATHER CONDITIONS ARE NOT AVAILABLE FOR
       CHILLICOTHE AND FARMINGTON.

MOZ001>031-035>038-043-044-053-054-161400-
...NORTHERN AND WESTERN MISSOURI...

CITY           SKY/WX    TMP DP  RH WIND       PRES   REMARKS
KANSAS CTY INT PTSUNNY   47  26  44 S21G29    29.94R
KANSAS C DTWN  SUNNY     48  27  44 S14G21    29.97R
LEE`S SUMMIT   SUNNY     45  27  49 S20G28    29.98S
ST JOSEPH      MOSUNNY   47  27  45 S18       29.92R
CHILLICOTHE      N/A     45  26  47 S14G21    30.02R
KIRKSVILLE     MOSUNNY   41  26  55 SE15      30.06R

$$
MOZ066>068-077>081-088>096-101>105-161400-
...SOUTHWEST MISSOURI...

CITY           SKY/WX    TMP DP  RH WIND       PRES   REMARKS
SPRINGFIELD    PTSUNNY   41  31  67 SE15      30.10R
JOPLIN         CLOUDY    45  28  51 S18       30.06R

$$
MOZ032>034-039>042-045>050-055>058-069>072-161400-
...CENTRAL MISSOURI...

CITY           SKY/WX    TMP DP  RH WIND       PRES   REMARKS
COLUMBIA       MOSUNNY   40  28  62 SE16      30.12R
JEFFERSON CITY MOSUNNY   41  28  60 SE13      30.15R
ROLLA          MOSUNNY   40  26  57 S17       30.15R
SEDALIA        SUNNY     45  28  51 S18G28    30.07R
OSAGE BEACH    MOSUNNY   41  27  56 S10G20    30.15R

$$
MOZ051-052-059>065-161400-
...EAST CENTRAL MISSOURI...

CITY           SKY/WX    TMP DP  RH WIND       PRES   REMARKS
ST LOUIS INTL  PTSUNNY   41  23  48 S21G28    30.24R
SPIRIT OF STL  PTSUNNY   40  21  46 S13G21    30.22R
ST CHARLES     MOSUNNY   40  26  57 S14       30.23R

$$
MOZ072>076-082>087-097>100-106>115-161400-
...SOUTH CENTRAL AND SOUTHEAST MISSOURI...

CITY           SKY/WX    TMP DP  RH WIND       PRES   REMARKS
CAPE GIRARDEAU SUNNY     39  29  67 SE7       30.31R
FARMINGTON     MOSUNNY   37  25  60 SE7       30.27R
POPLAR BLUFF   SUNNY     40  29  64 MISG      30.29R
WEST PLAINS    MOSUNNY   38  27  64 S13       30.21R WCI  30

$$



USA.gov is the U.S. government's official web portal to all federal, state and local government web resources and services.